Weather History for Marrakech, Morocco

Change the Weather History Date:

Friday, July 12, 2013

  Actual Average Record
Temperature  
Mean Temperature 90 °F -  
Max Temperature 104 °F 95 °F 109 °F (2010)
Min Temperature 77 °F 66 °F 62 °F (1997)
Cooling Degree Days 26    
Growing Degree Days 40 (Base 50)    
Moisture  
Dew Point 50 °F    
Average Humidity 26    
Maximum Humidity 47    
Minimum Humidity 7    
Precipitation  
Precipitation 0.00 in 0.00 in - ()
Sea Level Pressure  
Sea Level Pressure 29.98 in    
Wind  
Wind Speed 5 mph ()    
Max Wind Speed 14 mph    
Max Gust Speed -    
Visibility 6.2 miles    
Events      
Averages and records for this station are not official NWS values.
T = Trace of Precipitation, MM = Missing Value Source: Averaged Metar Reports

Daily Weather History Graph

Daily Weather History Graph

Search for Another Location

Airport:

Trip Planner

Search our weather history database for the weather conditions in past years. The results will help you decide how hot, cold, wet, or windy it might be!

Date:

Astronomy

Jul. 12, 2013 Rise Set
Actual Time 5:36 AM WET 7:39 PM WET
Civil Twilight 5:08 AM WET 8:06 PM WET
Nautical Twilight 4:34 AM WET 8:40 PM WET
Astronomical Twilight 3:58 AM WET 9:16 PM WET
Moon 9:21 AM WET (7/12) 10:02 PM WET (7/12)
Length of Visible Light 14h 58m
Length of Day
14h 03m
Waxing Crescent, 16% of the Moon is Illuminated
Jul 12
Waxing Crescent
Jul 16
First Quarter
Jul 22
Full
Jul 29
Last Quarter
Aug 6
New

Hourly Weather History & Observations

Time (WET) Temp. Heat Index Dew Point Humidity Pressure Visibility Wind Dir Wind Speed Gust Speed Precip Events Conditions
12:00 AM 79 °F - 54 °F 31% 29.86 in 6 mi WNW 2.3 mph - -   Scattered Clouds
12:00 AM 82.4 °F 81.4 °F 53.6 °F 37% 29.95 in 6.2 mi East 5.8 mph - N/A   Partly Cloudy
12:30 AM 82.4 °F 81.4 °F 53.6 °F 37% 29.95 in 6.2 mi ENE 5.8 mph - N/A   Scattered Clouds
1:00 AM 79 °F - 54 °F 31% 29.86 in 6 mi WNW 2.3 mph - -   Scattered Clouds
1:00 AM 82.4 °F 81.4 °F 53.6 °F 37% 29.95 in 6.2 mi ENE 3.5 mph - N/A   Scattered Clouds
1:30 AM 82.4 °F 81.4 °F 53.6 °F 37% 29.95 in 6.2 mi East 6.9 mph - N/A   Scattered Clouds
2:00 AM 79 °F - 54 °F 31% 29.86 in 6 mi WNW 2.3 mph - -   Scattered Clouds
2:00 AM 80.6 °F 80.3 °F 53.6 °F 39% 29.92 in 6.2 mi SE 4.6 mph - N/A   Scattered Clouds
2:30 AM 80.6 °F 80.3 °F 53.6 °F 39% 29.92 in 6.2 mi East 1.2 mph - N/A   Scattered Clouds
3:00 AM 79 °F - 54 °F 31% 29.86 in 6 mi WNW 4.5 mph - -   Scattered Clouds
3:00 AM 78.8 °F - 53.6 °F 42% 29.95 in 6.2 mi Variable 1.2 mph - N/A   Scattered Clouds
3:30 AM 80.6 °F 80.3 °F 53.6 °F 39% 29.92 in 6.2 mi Calm Calm - N/A   Scattered Clouds
4:00 AM 78.8 °F - 55.4 °F 44% 29.95 in 6.2 mi SW 5.8 mph - N/A   Scattered Clouds
4:30 AM 77.0 °F - 55.4 °F 47% 29.95 in 6.2 mi SW 6.9 mph - N/A   Scattered Clouds
5:00 AM 78.8 °F - 53.6 °F 42% 29.95 in 6.2 mi SSW 6.9 mph - N/A   Scattered Clouds
5:30 AM 78.8 °F - 53.6 °F 42% 29.95 in 6.2 mi SSW 3.5 mph - N/A   Scattered Clouds
5:48 AM 80 °F - 54 °F 30% 29.89 in 6 mi SSW 3.5 mph - -   Clear
6:00 AM 80.6 °F 80.3 °F 53.6 °F 39% 29.98 in - SSW 3.5 mph - N/A   Clear
6:30 AM 77.0 °F - 53.6 °F 44% 29.98 in - Calm Calm - N/A   Clear
7:00 AM 89 °F - 54 °F 20% 29.90 in 6 mi NW 3.5 mph - -   Clear
7:00 AM 82.4 °F 81.4 °F 53.6 °F 37% 29.98 in - Variable 5.8 mph - N/A   Clear
7:30 AM 82.4 °F 81.7 °F 55.4 °F 39% 29.98 in - SW 4.6 mph - N/A   Clear
8:00 AM 89 °F - 54 °F 20% 29.90 in 6 mi NW 3.5 mph - -   Clear
8:00 AM 84.2 °F 83.0 °F 55.4 °F 37% 30.01 in - WSW 3.5 mph - N/A   Clear
8:30 AM 87.8 °F 85.7 °F 53.6 °F 31% 30.01 in - WNW 3.5 mph - N/A   Clear
9:00 AM 89 °F - 54 °F 20% 29.90 in 6 mi NW 3.5 mph - -   Clear
9:00 AM 89.6 °F 87.7 °F 55.4 °F 31% 30.01 in - Variable 2.3 mph - N/A   Clear
9:30 AM 91.4 °F 89.1 °F 53.6 °F 28% 30.01 in - Variable 2.3 mph - N/A   Clear
10:00 AM 91.4 °F 89.4 °F 55.4 °F 29% 30.01 in 6.2 mi Variable 3.5 mph - N/A   Partly Cloudy
10:30 AM 93.2 °F 91.3 °F 55.4 °F 28% 30.01 in 6.2 mi NNW 4.6 mph - N/A   Partly Cloudy
11:00 AM 95.0 °F 93.0 °F 55.4 °F 26% 30.01 in 6.2 mi Variable 3.5 mph - N/A   Partly Cloudy
11:30 AM 96.8 °F 94.4 °F 53.6 °F 23% 30.01 in 6.2 mi Variable 2.3 mph - N/A   Partly Cloudy
12:00 PM 98 °F - 52 °F 13% 29.89 in 6 mi North 8.9 mph - -   Scattered Clouds
12:00 PM 98.6 °F - 51.8 °F 21% 30.01 in 6.2 mi Variable 4.6 mph - N/A   Partly Cloudy
12:30 PM 100.4 °F - 50.0 °F 18% 30.01 in 6.2 mi Variable 5.8 mph - N/A   Partly Cloudy
1:00 PM 100.4 °F - 48.2 °F 17% 30.01 in 6.2 mi North 6.9 mph - N/A   Partly Cloudy
1:30 PM 102.2 °F - 48.2 °F 16% 30.01 in 6.2 mi WNW 4.6 mph - N/A   Partly Cloudy
2:00 PM 102.2 °F - 48.2 °F 16% 30.01 in 6.2 mi Variable 6.9 mph - N/A   Partly Cloudy
2:30 PM 102.2 °F - 46.4 °F 15% 29.98 in 6.2 mi NE 8.1 mph - N/A   Partly Cloudy
3:00 PM 104 °F - 44 °F 7% 29.84 in 6 mi North 13.4 mph - -   Partly Cloudy
3:00 PM 104.0 °F - 44.6 °F 13% 29.98 in 6.2 mi North 9.2 mph - N/A   Partly Cloudy
3:30 PM 104.0 °F - 44.6 °F 13% 29.98 in 6.2 mi NE 12.7 mph - N/A   Partly Cloudy
4:00 PM 104.0 °F - 42.8 °F 12% 29.98 in 6.2 mi NNW 8.1 mph - N/A   Partly Cloudy
4:30 PM 102.2 °F - 44.6 °F 14% 29.98 in 6.2 mi NNE 10.4 mph - N/A   Partly Cloudy
5:00 PM 102.2 °F - 44.6 °F 14% 29.98 in 6.2 mi NNW 8.1 mph - N/A   Partly Cloudy
5:30 PM 102.2 °F - 42.8 °F 13% 29.98 in 6.2 mi NNW 11.5 mph - N/A   Partly Cloudy
6:00 PM 102.2 °F - 39.2 °F 11% 29.98 in 6.2 mi North 13.8 mph - N/A   Partly Cloudy
6:30 PM 100.4 °F - 41.0 °F 13% 30.01 in 6.2 mi North 13.8 mph - N/A   Partly Cloudy
7:00 PM 98.6 °F - 42.8 °F 15% 30.01 in 6.2 mi North 12.7 mph - N/A   Partly Cloudy
7:30 PM 96.8 °F - 44.6 °F 17% 30.04 in 6.2 mi North 10.4 mph - N/A   Partly Cloudy
8:00 PM 95.0 °F - 44.6 °F 18% 30.04 in 6.2 mi North 9.2 mph - N/A   Partly Cloudy
8:30 PM 93.2 °F - 44.6 °F 19% 30.04 in 6.2 mi NNE 10.4 mph - N/A   Partly Cloudy
9:00 PM 92 °F - 43 °F 10% 29.95 in 6 mi NNE 8.1 mph - -   Scattered Clouds
9:00 PM 93.2 °F - 42.8 °F 17% 30.06 in 6.2 mi NNE 6.9 mph - N/A   Partly Cloudy
9:30 PM 91.4 °F - 42.8 °F 18% 30.06 in 6.2 mi NNE 8.1 mph - N/A   Partly Cloudy
10:00 PM 89.6 °F - 44.6 °F 21% 30.09 in 6.2 mi NE 4.6 mph - N/A   Partly Cloudy
10:30 PM 89.6 °F - 46.4 °F 22% 30.09 in 6.2 mi NNE 6.9 mph - N/A   Partly Cloudy
11:00 PM 86.0 °F - 46.4 °F 25% 30.09 in - Variable 2.3 mph - N/A   Clear
11:30 PM 84.2 °F - 48.2 °F 29% 30.09 in - NE 5.8 mph - N/A   Clear